Resia Pass, Italy

1:21 PM CEST on September 21, 2017 (GMT +0200)
Resia Pass

Weather History for LIVE - October, 2012

Change the Weather History Date:

Saturday, October 27, 2012

  Actual Average Record
Temperature  
Mean Temperature 36 °F -  
Max Temperature 42 °F 49 °F 62 °F (1999)
Min Temperature 30 °F 34 °F 21 °F (2003)
Degree Days  
Heating Degree Days 29    
Moisture  
Dew Point 30 °F    
Average Humidity 71    
Maximum Humidity 76    
Minimum Humidity 55    
Precipitation  
Precipitation 0.00 in - - ()
Sea Level Pressure  
Sea Level Pressure 29.33 in    
Wind  
Wind Speed 6 mph ()    
Max Wind Speed 12 mph    
Max Gust Speed 33 mph    
Visibility 3.0 miles    
Events Rain , Snow    
Averages and records for this station are not official NWS values.
T = Trace of Precipitation, MM = Missing Value Source: Averaged Metar Reports

Daily Weather History Graph

Daily Weather History Graph

Search for Another Location

Airport or City:

Trip Planner

Search our weather history database for the weather conditions in past years. The results will help you decide how hot, cold, wet, or windy it might be!

Date:

Astronomy

Oct. 27, 2012 Rise Set
Actual Time 7:53 AM CEST 6:09 PM CEST
Civil Twilight 7:21 AM CEST 6:40 PM CEST
Nautical Twilight 6:46 AM CEST 7:16 PM CEST
Astronomical Twilight 6:11 AM CEST 7:51 PM CEST
Moon 4:52 PM CEST (10/27) 5:25 AM CEST (10/27)
Length of Visible Light 11h 19m
Length of Day
10h 16m
Waxing Gibbous, 95% of the Moon is Illuminated
Oct 27
Waxing Gibbous
Oct 29
Full
Nov 7
Last Quarter
Nov 13
New
Nov 20
First Quarter

Hourly Weather History & Observations

Time (CEST) Temp. Windchill Dew Point Humidity Pressure Visibility Wind Dir Wind Speed Gust Speed Precip Events Conditions
12:55 AM 41.0 °F 36.4 °F 33.8 °F 76% 29.56 in 1.9 mi SE 6.9 mph - N/A   Overcast
1:55 AM 41.0 °F 37.1 °F 33.8 °F 76% 29.53 in 1.2 mi SE 5.8 mph - N/A   Overcast
3:55 AM 41.0 °F 37.1 °F 33.8 °F 76% 29.47 in 3.7 mi SE 5.8 mph - N/A   Overcast
4:55 AM 41.0 °F 37.1 °F 33.8 °F 76% 29.47 in 3.7 mi SE 5.8 mph - N/A   Overcast
5:55 AM 41.0 °F 37.1 °F 33.8 °F 76% 29.44 in 5.0 mi SSE 5.8 mph - N/A   Mostly Cloudy
6:55 AM 41.0 °F 38.0 °F 33.8 °F 76% 29.39 in 3.7 mi South 4.6 mph - N/A   Overcast
7:55 AM 41.0 °F 38.0 °F 33.8 °F 76% 29.39 in 2.5 mi SSE 4.6 mph - N/A   Overcast
9:55 AM 41.0 °F 37.1 °F 33.8 °F 76% 29.30 in 2.5 mi South 5.8 mph - N/A   Overcast
10:55 AM 41.0 °F 37.1 °F 33.8 °F 76% 29.30 in 2.5 mi SE 5.8 mph - N/A   Overcast
11:55 AM 41.0 °F 36.4 °F 33.8 °F 76% 29.27 in 3.7 mi SSE 6.9 mph - N/A   Overcast
12:55 PM 42.8 °F 40.1 °F 33.8 °F 70% 29.24 in 3.7 mi South 4.6 mph - N/A   Overcast
2:55 PM 39.2 °F 33.6 °F 30.2 °F 70% 29.18 in 3.1 mi North 8.1 mph 23.0 mph N/A Rain Light Rain
3:55 PM 39.2 °F 34.2 °F 30.2 °F 70% 29.18 in 3.1 mi North 6.9 mph 23.0 mph N/A Rain Light Rain
6:55 PM 37.4 °F 30.8 °F 26.6 °F 65% 29.18 in 3.1 mi North 9.2 mph 28.8 mph N/A Rain Light Rain
7:55 PM 37.4 °F 31.4 °F 24.8 °F 60% 29.24 in 3.1 mi North 8.1 mph 23.0 mph N/A Rain Light Rain
8:55 PM 33.8 °F 25.8 °F 23.0 °F 65% 29.21 in 2.5 mi North 10.4 mph 25.3 mph N/A Snow Light Snow
9:55 PM 32.0 °F 23.6 °F 21.2 °F 64% 29.24 in 2.5 mi North 10.4 mph 25.3 mph N/A Snow Light Snow
10:55 PM 30.2 °F 20.8 °F 19.4 °F 64% 29.30 in 3.1 mi North 11.5 mph 26.5 mph N/A   Overcast
11:55 PM 30.2 °F 20.8 °F 15.8 °F 55% 29.30 in 3.1 mi North 11.5 mph 33.4 mph N/A   Overcast